Parcialmente nublado y algunas nubes cirrus
Nublado
Nublado
Mayormente nublado
Mayormente nublado
Mayormente nublado
Mayormente nublado y algunos cirros
(°C)
-1°
-1°
-2°
(°C)
-4°
-3°
-3°
-3°
-4°
-4°
-5°
ENE
NE
NE
NE
NE
NE
ENE
(km/h)
2-6
3-9
3-9
5-10
4-10
4-9
4-8
(mm)
0
0
0
0
0
0
0
(%)
0
0
1
2
3
4
5

Elevación del sol

/ 24.2°
sun-icon
UV 1
07:44
17:09
Creciente (76°)
10:41
24:00

METAR a Innsbruck (LOWI)

Hora Condiciones Temperatura/
Punto de condensación
Viento Visibilidad Tiempo Nubes Presión Cambiar Bruto
VFR -1°C / -7°C 80º 2kt >10km - Few Clouds 1500ft
Scattered Clouds 4000ft
Broken Clouds 7500ft
1017 No Significant change LOWI 271050Z 08002KT 9999 FEW015 SCT040 BKN075 M01/M07 Q1017 NOSIG
VFR -1°C / -6°C variable 2kt >10km - Few Clouds 1500ft
Scattered Clouds 4000ft
Broken Clouds 7500ft
1018 No Significant change LOWI 271020Z VRB02KT 9999 FEW015 SCT040 BKN075 M01/M06 Q1018 NOSIG
VFR -1°C / -6°C variable 1kt >10km - Few Clouds 1500ft
Broken Clouds 4000ft
1018 No Significant change LOWI 270950Z VRB01KT 9999 FEW015 BKN040 M01/M06 Q1018 NOSIG
VFR -2°C / -6°C variable 2kt >10km - Scattered Clouds 1500ft
Broken Clouds 4000ft
1018 No Significant change LOWI 270920Z VRB02KT 9999 SCT015 BKN040 M02/M06 Q1018 NOSIG
VFR -2°C / -6°C variable 1kt >10km - Scattered Clouds 1500ft
Overcast 3700ft
1018 No Significant change LOWI 270850Z VRB01KT 9999 SCT015 OVC037 M02/M06 Q1018 NOSIG
VFR -2°C / -6°C 60º 3kt >10km - Scattered Clouds 1500ft
Overcast 3600ft
1018 No Significant change LOWI 270820Z 06003KT 9999 SCT015 OVC036 M02/M06 Q1018 NOSIG
VFR -2°C / -6°C variable 2kt >10km - Scattered Clouds 1000ft
Overcast 3500ft
1018 No Significant change LOWI 270750Z VRB02KT 9999 SCT010 OVC035 M02/M06 Q1018 NOSIG
VFR -2°C / -6°C 140º variable 110º to 170º 3kt >10km - Scattered Clouds 1000ft
Overcast 3500ft
1017 No Significant change LOWI 270720Z 14003KT 110V170 9999 SCT010 OVC035 M02/M06 Q1017 NOSIG
MVFR -2°C / -6°C 100º variable 070º to 130º 3kt >10km - Scattered Clouds 1000ft
Overcast 3000ft
1017 No Significant change LOWI 270650Z 10003KT 070V130 9999 SCT010 OVC030 M02/M06 Q1017 NOSIG
MVFR -2°C / -6°C 70º 5kt 7000m - Scattered Clouds 1000ft
Overcast 3000ft
1017 No Significant change LOWI 270620Z 07005KT 7000 SCT010 OVC030 M02/M06 Q1017 NOSIG
MVFR -2°C / -6°C variable 2kt 7000m - Scattered Clouds 1000ft
Overcast 3000ft
1017 No Significant change LOWI 270550Z VRB02KT 7000 SCT010 OVC030 M02/M06 Q1017 NOSIG
MVFR -2°C / -6°C variable 2kt 6000m - Scattered Clouds 1000ft
Overcast 3000ft
1016 No Significant change LOWI 270520Z VRB02KT 6000 SCT010 OVC030 M02/M06 Q1016 NOSIG
MVFR -2°C / -5°C variable 2kt 6000m Light Snow 1.00mm precipitation Vertical Visibility of 0ft.
Overcast 3000ft
1017 No Significant change LOWI 270450Z VRB02KT 6000 -SN SCT010 OVC030 M02/M05 Q1017 NOSIG
MVFR -2°C / -5°C 140º 3kt 7000m Light Snow 1.00mm precipitation Vertical Visibility of 0ft.
Overcast 3000ft
1016 No Significant change LOWI 270420Z 14003KT 7000 -SN SCT015 OVC030 M02/M05 Q1016 NOSIG
MVFR -2°C / -5°C 90º variable 020º to 120º 4kt >10km - Few Clouds 2200ft
Broken Clouds 2800ft
1017 - LOWI 270350Z AUTO 09004KT 020V120 9999 FEW022 BKN028 M02/M05 Q1017
MVFR -2°C / -5°C 70º 5kt >10km - Few Clouds 1900ft
Overcast 2600ft
1017 - LOWI 270320Z AUTO 07005KT 9999 FEW019 OVC026 M02/M05 Q1017
MVFR -2°C / -5°C 100º 3kt >10km - Scattered Clouds 2000ft
Broken Clouds 2400ft
1017 - LOWI 270250Z AUTO 10003KT 9999 SCT020 BKN024 M02/M05 Q1017
MVFR -2°C / -5°C 70º 6kt >10km - Few Clouds 2200ft
Broken Clouds 2400ft
1017 - LOWI 270220Z AUTO 07006KT 9999 FEW022 BKN024 M02/M05 Q1017
MVFR -2°C / -5°C 70º 5kt >10km - Few Clouds 2000ft
Broken Clouds 2200ft
1017 - LOWI 270150Z AUTO 07005KT 9999 FEW020 BKN022 M02/M05 Q1017
MVFR -2°C / -5°C 60º 5kt >10km - Few Clouds 2000ft
Broken Clouds 2200ft
1017 - LOWI 270120Z AUTO 06005KT 9999 FEW020 BKN022 M02/M05 Q1017
MVFR -2°C / -5°C 60º 5kt >10km - Few Clouds 2000ft
Broken Clouds 2200ft
1017 - LOWI 270050Z AUTO 06005KT 9999 FEW020 BKN022 M02/M05 Q1017
MVFR -2°C / -5°C 70º 4kt >10km - Few Clouds 2000ft
Broken Clouds 2200ft
1017 - LOWI 270020Z AUTO 07004KT 9999 FEW020 BKN022 M02/M05 Q1017
MVFR -2°C / -5°C variable 1kt >10km - Scattered Clouds 2000ft
Broken Clouds 2200ft
1017 - LOWI 262350Z AUTO VRB01KT 9999 SCT020 BKN022 M02/M05 Q1017
MVFR -2°C / -5°C variable 2kt >10km - Few Clouds 1900ft
Scattered Clouds 2000ft
Broken Clouds 2200ft
1017 - LOWI 262320Z AUTO VRB02KT 9999 FEW019 SCT020 BKN022 M02/M05 Q1017

VFR

-1°C / -7°C

[Más]
Viento 80º 2kt
Visibilidad >10km
Tiempo -
Nubes Few Clouds 1500ft
Scattered Clouds 4000ft
Broken Clouds 7500ft
Presión 1017
Cambiar No Significant change
Bruto LOWI 271050Z 08002KT 9999 FEW015 SCT040 BKN075 M01/M07 Q1017 NOSIG

VFR

-1°C / -6°C

[Más]
Viento variable 2kt
Visibilidad >10km
Tiempo -
Nubes Few Clouds 1500ft
Scattered Clouds 4000ft
Broken Clouds 7500ft
Presión 1018
Cambiar No Significant change
Bruto LOWI 271020Z VRB02KT 9999 FEW015 SCT040 BKN075 M01/M06 Q1018 NOSIG

VFR

-1°C / -6°C

[Más]
Viento variable 1kt
Visibilidad >10km
Tiempo -
Nubes Few Clouds 1500ft
Broken Clouds 4000ft
Presión 1018
Cambiar No Significant change
Bruto LOWI 270950Z VRB01KT 9999 FEW015 BKN040 M01/M06 Q1018 NOSIG

VFR

-2°C / -6°C

[Más]
Viento variable 2kt
Visibilidad >10km
Tiempo -
Nubes Scattered Clouds 1500ft
Broken Clouds 4000ft
Presión 1018
Cambiar No Significant change
Bruto LOWI 270920Z VRB02KT 9999 SCT015 BKN040 M02/M06 Q1018 NOSIG

VFR

-2°C / -6°C

[Más]
Viento variable 1kt
Visibilidad >10km
Tiempo -
Nubes Scattered Clouds 1500ft
Overcast 3700ft
Presión 1018
Cambiar No Significant change
Bruto LOWI 270850Z VRB01KT 9999 SCT015 OVC037 M02/M06 Q1018 NOSIG

VFR

-2°C / -6°C

[Más]
Viento 60º 3kt
Visibilidad >10km
Tiempo -
Nubes Scattered Clouds 1500ft
Overcast 3600ft
Presión 1018
Cambiar No Significant change
Bruto LOWI 270820Z 06003KT 9999 SCT015 OVC036 M02/M06 Q1018 NOSIG

VFR

-2°C / -6°C

[Más]
Viento variable 2kt
Visibilidad >10km
Tiempo -
Nubes Scattered Clouds 1000ft
Overcast 3500ft
Presión 1018
Cambiar No Significant change
Bruto LOWI 270750Z VRB02KT 9999 SCT010 OVC035 M02/M06 Q1018 NOSIG

VFR

-2°C / -6°C

[Más]
Viento 140º variable 110º to 170º 3kt
Visibilidad >10km
Tiempo -
Nubes Scattered Clouds 1000ft
Overcast 3500ft
Presión 1017
Cambiar No Significant change
Bruto LOWI 270720Z 14003KT 110V170 9999 SCT010 OVC035 M02/M06 Q1017 NOSIG

MVFR

-2°C / -6°C

[Más]
Viento 100º variable 070º to 130º 3kt
Visibilidad >10km
Tiempo -
Nubes Scattered Clouds 1000ft
Overcast 3000ft
Presión 1017
Cambiar No Significant change
Bruto LOWI 270650Z 10003KT 070V130 9999 SCT010 OVC030 M02/M06 Q1017 NOSIG

MVFR

-2°C / -6°C

[Más]
Viento 70º 5kt
Visibilidad 7000m
Tiempo -
Nubes Scattered Clouds 1000ft
Overcast 3000ft
Presión 1017
Cambiar No Significant change
Bruto LOWI 270620Z 07005KT 7000 SCT010 OVC030 M02/M06 Q1017 NOSIG

MVFR

-2°C / -6°C

[Más]
Viento variable 2kt
Visibilidad 7000m
Tiempo -
Nubes Scattered Clouds 1000ft
Overcast 3000ft
Presión 1017
Cambiar No Significant change
Bruto LOWI 270550Z VRB02KT 7000 SCT010 OVC030 M02/M06 Q1017 NOSIG

MVFR

-2°C / -6°C

[Más]
Viento variable 2kt
Visibilidad 6000m
Tiempo -
Nubes Scattered Clouds 1000ft
Overcast 3000ft
Presión 1016
Cambiar No Significant change
Bruto LOWI 270520Z VRB02KT 6000 SCT010 OVC030 M02/M06 Q1016 NOSIG

MVFR

-2°C / -5°C

[Más]
Viento variable 2kt
Visibilidad 6000m
Tiempo Light Snow 1.00mm precipitation
Nubes Vertical Visibility of 0ft.
Overcast 3000ft
Presión 1017
Cambiar No Significant change
Bruto LOWI 270450Z VRB02KT 6000 -SN SCT010 OVC030 M02/M05 Q1017 NOSIG

MVFR

-2°C / -5°C

[Más]
Viento 140º 3kt
Visibilidad 7000m
Tiempo Light Snow 1.00mm precipitation
Nubes Vertical Visibility of 0ft.
Overcast 3000ft
Presión 1016
Cambiar No Significant change
Bruto LOWI 270420Z 14003KT 7000 -SN SCT015 OVC030 M02/M05 Q1016 NOSIG

MVFR

-2°C / -5°C

[Más]
Viento 90º variable 020º to 120º 4kt
Visibilidad >10km
Tiempo -
Nubes Few Clouds 2200ft
Broken Clouds 2800ft
Presión 1017
Cambiar -
Bruto LOWI 270350Z AUTO 09004KT 020V120 9999 FEW022 BKN028 M02/M05 Q1017

MVFR

-2°C / -5°C

[Más]
Viento 70º 5kt
Visibilidad >10km
Tiempo -
Nubes Few Clouds 1900ft
Overcast 2600ft
Presión 1017
Cambiar -
Bruto LOWI 270320Z AUTO 07005KT 9999 FEW019 OVC026 M02/M05 Q1017

MVFR

-2°C / -5°C

[Más]
Viento 100º 3kt
Visibilidad >10km
Tiempo -
Nubes Scattered Clouds 2000ft
Broken Clouds 2400ft
Presión 1017
Cambiar -
Bruto LOWI 270250Z AUTO 10003KT 9999 SCT020 BKN024 M02/M05 Q1017

MVFR

-2°C / -5°C

[Más]
Viento 70º 6kt
Visibilidad >10km
Tiempo -
Nubes Few Clouds 2200ft
Broken Clouds 2400ft
Presión 1017
Cambiar -
Bruto LOWI 270220Z AUTO 07006KT 9999 FEW022 BKN024 M02/M05 Q1017

MVFR

-2°C / -5°C

[Más]
Viento 70º 5kt
Visibilidad >10km
Tiempo -
Nubes Few Clouds 2000ft
Broken Clouds 2200ft
Presión 1017
Cambiar -
Bruto LOWI 270150Z AUTO 07005KT 9999 FEW020 BKN022 M02/M05 Q1017

MVFR

-2°C / -5°C

[Más]
Viento 60º 5kt
Visibilidad >10km
Tiempo -
Nubes Few Clouds 2000ft
Broken Clouds 2200ft
Presión 1017
Cambiar -
Bruto LOWI 270120Z AUTO 06005KT 9999 FEW020 BKN022 M02/M05 Q1017

MVFR

-2°C / -5°C

[Más]
Viento 60º 5kt
Visibilidad >10km
Tiempo -
Nubes Few Clouds 2000ft
Broken Clouds 2200ft
Presión 1017
Cambiar -
Bruto LOWI 270050Z AUTO 06005KT 9999 FEW020 BKN022 M02/M05 Q1017

MVFR

-2°C / -5°C

[Más]
Viento 70º 4kt
Visibilidad >10km
Tiempo -
Nubes Few Clouds 2000ft
Broken Clouds 2200ft
Presión 1017
Cambiar -
Bruto LOWI 270020Z AUTO 07004KT 9999 FEW020 BKN022 M02/M05 Q1017

MVFR

-2°C / -5°C

[Más]
Viento variable 1kt
Visibilidad >10km
Tiempo -
Nubes Scattered Clouds 2000ft
Broken Clouds 2200ft
Presión 1017
Cambiar -
Bruto LOWI 262350Z AUTO VRB01KT 9999 SCT020 BKN022 M02/M05 Q1017

MVFR

-2°C / -5°C

[Más]
Viento variable 2kt
Visibilidad >10km
Tiempo -
Nubes Few Clouds 1900ft
Scattered Clouds 2000ft
Broken Clouds 2200ft
Presión 1017
Cambiar -
Bruto LOWI 262320Z AUTO VRB02KT 9999 FEW019 SCT020 BKN022 M02/M05 Q1017

TAF a Innsbruck (LOWI)

From till


Maximum Temperature 0ºC on . Minimum Temperature -3ºC on .
From till Wind 90º 5kt. Visibility 7000m. Scattered Clouds 1000ft. Overcast 2500ft.
Temporarly from till Visibility 4000m. Light Snow . Broken Clouds 1000ft.
Temporarly from till Visibility 3000m. Light Snow . Broken Clouds 1000ft.
Temporarly from till Visibility 2500m. Snow . Overcast 800ft.

Bruto: TAF LOWI 270515Z 2706/2806 09005KT 7000 SCT010 OVC025 TX00/2713Z TNM03/2707Z TEMPO 2706/2709 4000 -SN BKN010 TEMPO 2715/2720 3000 -SN BKN010 TEMPO 2720/2806 2500 SN OVC008

Radar y precipitación nowcast para Innsbruck

llovizna
Leve
Moderado
Fuerte
Muy fuerte
Granizo

El marcador del lugar se coloca en Innsbruck. Esta animación muestra el radar de precipitaciones hasta la última hora, así como 2h de previsión. Las lloviznas o las nevadas ligeras pueden ser invisibles para el radar. La intensidad de la precipitación está codificada por colores, que van del azul claro al naranja.
Copyright 2023 Deutscher Wetterdienst / meteoblue.

Imágenes actuales de satélite y lluvia para Innsbruck, Austria

El marcador del lugar se coloca en Innsbruck. [Más]

La imagen de satélite en tiempo real se aprovecha de la combinación de bandas de la luz visible y de la luz infrarroja. Cómo se pueden detectar cambios de temperaturas a través de la banda infrarrojo, la imagen no aparece oscura de noche. No obstante, la niebla y las nubes bajas son apenas visibles en las imágenes de infrarrojo ya que las diferencias de temperaturas entre el suelo y la niebla son muy pequeñas, por eso, son casi invisibles durante la noche. Las imágenes de satélite del Meteosat (Europa) son actualizados en tiempo real cada 5 minutos. Las imágenes del GOES-16/GOES-17 (América del Norte y América del Sur) y Himawari (Asia) son actualizadas cada 10 minutos.

La precipitación se estima a partir del radar y de los satélites. Las estimaciones de la precipitación desde los satélites son menos precisas durante la noche que durante el día. Las cruces naranjas identifican lugares donde se detectaron relámpagos (en Europa).

Copyright 2023 EUMETSAT / meteoblue. Datos de relámpagos proporcionados por nowcast.

Volver al principio